www.pogodaiklimat.ru

Архив погоды в Норильске (Красноярский край, Россия)

Время
(UTC), дата
00 1.02
03 1.02
06 1.02
09 1.02
12 1.02
15 1.02
18 1.02
21 1.02
00 2.02
03 2.02
06 2.02
09 2.02
12 2.02
15 2.02
18 2.02
21 2.02
00 3.02
03 3.02
06 3.02
09 3.02
12 3.02
15 3.02
18 3.02
21 3.02
00 4.02
03 4.02
06 4.02
09 4.02
12 4.02
15 4.02
18 4.02
21 4.02
00 5.02
03 5.02
06 5.02
09 5.02
12 5.02
15 5.02
18 5.02
21 5.02
00 6.02
03 6.02
06 6.02
09 6.02
12 6.02
15 6.02
18 6.02
21 6.02
00 7.02
03 7.02
06 7.02
09 7.02
12 7.02
15 7.02
18 7.02
21 7.02
00 8.02
03 8.02
06 8.02
09 8.02
12 8.02
15 8.02
18 8.02
21 8.02
00 9.02
03 9.02
06 9.02
09 9.02
12 9.02
15 9.02
18 9.02
21 9.02
00 10.02
03 10.02
06 10.02
09 10.02
12 10.02
15 10.02
18 10.02
21 10.02
00 11.02
03 11.02
06 11.02
09 11.02
12 11.02
15 11.02
18 11.02
21 11.02
00 12.02
03 12.02
06 12.02
09 12.02
12 12.02
15 12.02
18 12.02
21 12.02
00 13.02
03 13.02
06 13.02
09 13.02
12 13.02
15 13.02
18 13.02
21 13.02
00 14.02
03 14.02
06 14.02
09 14.02
12 14.02
15 14.02
18 14.02
21 14.02
00 15.02
03 15.02
06 15.02
09 15.02
12 15.02
15 15.02
18 15.02
21 15.02
Ветер
(напр.,м/с)
Видим. Явления Облачность Т
(С)
Тd
(С)
f
(%)
Тe
(С)
Тes
(С)
Комфортность P
(гПа)
Po
(гПа)
Тmin
(С)
Tmax
(С)
R
(мм)
R24
(мм)
S
(см)
В 8-10
{13}
4000 м слаб. снег {метель} 10/0
[Cs]
-32.7 -33.9 89 -49 -49 опасность
обморожения
1034.3 1024.9 -40.6 0.0 89
В 9-11
{12}
4000 м слаб. снег {метель} 10/0
[Cs]
-31.8 -32.9 90 -49 -49 опасность
обморожения
1032.9 1023.5
В 9-12
{12}
4000 м слаб. снег {метель} 10/0 2000 м
[Ac As]
-30.3 -31.5 89 -47 -47 опасность
обморожения
1032.1 1022.8
В 6
{12}
4000 м слаб. снег {метель} 10/0 2000 м
[Ac As]
-27.9 -28.4 95 -41 -41 опасность
обморожения
1031.8 1022.6
В 7
{10}
4000 м слаб. снег {метель} 10/0 2000 м
[Ac As]
-26.7 -27.3 95 -40 -40 опасность
обморожения
1031.7 1022.5 -26.7 1
В 3 4000 м слаб. снег {метель} 10/0 2000 м
[Ac As]
-26.8 -27.4 95 -36 -36 опасность
обморожения
1031.3 1022.1
ЮВ 2 4000 м слаб. снег {метель} 10/0 2000 м
[Ac As]
-25.7 -26.2 96 -32 -32 опасность
обморожения
1031.0 1021.8
ЮВ 2 4000 м слаб. снег 10/0 2000 м
[Ac trans Cs]
-24.4 -26.9 80 -31 -31 опасность
обморожения
1030.1 1021.0
В 5 4000 м слаб. снег 10/0
[Cs]
-26.8 -29.3 79 -39 -39 опасность
обморожения
1028.5 1019.3 -27.3 0.4 88
ЮВ 4
{10}
4000 м дымка {снег, метель} 10/0 2000 м
[Ac As]
-28.1 -29.8 85 -39 -39 опасность
обморожения
1026.8 1017.6 -28.3
В 6
{10}
10 км позёмок {снег, метель} 10/0 2000 м
[Ac trans Ci fib]
-29.0 -30.7 85 -42 -42 опасность
обморожения
1024.7 1015.5
В 4 10 км позёмок {метель} 6/0 2000 м
[Ac trans Ci fib]
-29.2 -31.5 80 -40 -40 опасность
обморожения
1022.9 1013.8
В 3
{12}
20 км {метель} ясно -27.1 -29.4 81 -36 -36 опасность
обморожения
1020.3 1011.2 -26.8 0.0
штиль 0 20 км ясно -28.2 -30.6 80 -28 -28 по сезону 1017.7 1008.6
В 3
{10}
20 км ясно -25.6 -28.1 79 -34 -34 опасность
обморожения
1015.7 1006.6
В 5
{11}
10 км позёмок {метель} 3/0
[Ci fib]
-24.7 -27.1 80 -36 -36 опасность
обморожения
1013.8 1004.8
СЗ 2 10 км {метель} 8/0 2000 м
[Ac trans Ci fib]
-34.1 -36.4 80 -42 -42 опасность
обморожения
1013.7 1004.5 -34.2 86
З 2 4000 м дымка 8/0 2000 м
[Ac trans Ci fib]
-33.0 -35.3 80 -41 -41 опасность
обморожения
1012.9 1003.7 -35.5
СЗ 2 50 км {снег} 6/0 2000 м
[Ac trans Ci fib]
-34.5 -36.7 80 -43 -43 опасность
обморожения
1011.9 1002.6
З 4 4000 м дымка 6/0 2000 м
[Ac trans Ci fib]
-36.4 -38.1 84 -49 -49 опасность
обморожения
1010.9 1001.6
З 4 4000 м дымка 6/0 2000 м
[Ac trans Ci fib]
-36.9 -38.5 85 -50 -50 опасность
обморожения
1009.4 1000.1 -32.6 0.0
З 4 4000 м дымка 6/0 2000 м
[Ac trans Ci fib]
-37.0 -39.1 81 -50 -50 опасность
обморожения
1007.6 998.2
З 4 10 км 8/0 2000 м
[Ac trans Ci fib]
-35.8 -38.0 80 -48 -48 опасность
обморожения
1005.8 996.5
З 5 10 км позёмок {метель} 8/0 2000 м
[Ac trans Ci fib]
-34.0 -36.1 81 -48 -48 опасность
обморожения
1004.5 995.3
З 6 10 км позёмок {метель} 6/0 2000 м
[Ac trans Ci fib]
-31.3 -33.6 80 -45 -45 опасность
обморожения
1003.2 994.1 -37.2 86
СЗ 2 4000 м слаб. снег {метель} 10/0 2000 м
[Ac As]
-31.4 -33.6 81 -39 -39 опасность
обморожения
1003.1 994.0
СВ 1 20 км в посл. час снег {метель} 4/0 2000 м
[Ac trans Ci fib]
-36.4 -38.7 79 -41 -41 опасность
обморожения
1003.3 994.0
штиль 0 10 км 4/0 2000 м
[Ac trans Ci fib]
-37.3 -39.5 80 -37 -37 опасность
обморожения
1004.0 994.6
штиль 0 10 км 4/0
[Ci fib]
-36.5 -38.7 80 -37 -37 опасность
обморожения
1004.7 995.4 -30.8 0.2
штиль 0 10 км ясно -37.4 -39.5 81 -37 -37 опасность
обморожения
1005.3 995.9
штиль 0 10 км ясно -37.5 -39.9 78 -38 -38 опасность
обморожения
1005.9 996.5
штиль 0 2000 м дымка ясно -39.7 -42.2 77 -40 -40 опасность
обморожения
1007.2 997.7
штиль 0 4000 м дымка ясно -39.0 -41.1 80 -39 -39 опасность
обморожения
1008.4 999.0 -40.4 85
ЮВ 1 4000 м дымка 3/0
[Ci fib]
-39.8 -42.1 79 -45 -45 опасность
обморожения
1009.2 999.7 -40.0
Ю 1 4000 м дымка {метель} 8/0 2000 м
[Ac trans Cs]
-37.4 -39.5 81 -42 -42 опасность
обморожения
1010.5 1001.1
ЮВ 2 4000 м дымка {метель} 10/0
[Cs]
-37.0 -39.1 81 -46 -46 опасность
обморожения
1012.4 1003.0
ЮВ 4 10 км {метель} 9/0 2000 м
[Ac trans Ci fib]
-35.4 -37.4 82 -48 -48 опасность
обморожения
1013.9 1004.6 -35.1
В 3 20 км 8/0 2000 м
[Ac trans Ci fib]
-33.7 -35.9 80 -44 -44 опасность
обморожения
1015.1 1005.8
В 1 4000 м слаб. снег 10/0
[Cs]
-37.3 -39.5 80 -42 -42 опасность
обморожения
1016.2 1006.7
В 2 4000 м слаб. снег 10/0
[Cs]
-35.5 -37.7 80 -44 -44 опасность
обморожения
1016.7 1007.3
штиль 0 4000 м слаб. снег 10/0
[Cs]
-38.7 -40.7 81 -39 -39 опасность
обморожения
1017.3 1007.8 -39.6 1 86
СЗ 1 2000 м дымка {снег} 3/0
[Ci fib]
-39.5 -41.6 80 -45 -45 опасность
обморожения
1017.5 1007.9 -39.6
штиль 0 2000 м дымка {снег} 3/0
[Ci fib]
-40.2 -42.1 82 -40 -40 опасность
обморожения
1017.0 1007.4
штиль 0 2000 м дымка 4/0
[Ci fib]
-41.7 -43.7 81 -42 -42 опасность
обморожения
1016.3 1006.7
штиль 0 2000 м дымка ясно -39.9 -42.1 79 -40 -40 опасность
обморожения
1013.9 1004.4 -38.5 0.0
штиль 0 500 м переохл. туман ясно -42.1 -44.3 79 -42 -42 опасность
обморожения
1012.2 1002.5
штиль 0 500 м переохл. туман ясно -41.8 -43.7 82 -42 -42 опасность
обморожения
1010.6 1000.9
З 1 500 м переохл. туман ясно -41.7 -43.7 81 -47 -47 опасность
обморожения
1010.0 1000.3
З 1 500 м переохл. туман ясно -41.5 -43.7 79 -47 -47 опасность
обморожения
1009.9 1000.3 -43.0 86
З 2 500 м переохл. туман ясно -41.2 -43.7 77 -51 -51 опасность
обморожения
1010.0 1000.4
З 2 500 м переохл. туман ясно -42.3 -44.3 81 -52 -52 опасность
обморожения
1010.6 1000.9
штиль 0 500 м переохл. туман ясно -42.5 -44.3 82 -43 -43 опасность
обморожения
1011.0 1001.3
штиль 0 500 м переохл. туман ясно -42.0 -44.3 78 -42 -42 опасность
обморожения
1010.1 1000.4 -41.2
СЗ 2 500 м переохл. туман ясно -41.7 -43.7 81 -51 -51 опасность
обморожения
1008.7 999.0
штиль 0 500 м переохл. туман ясно -40.2 -42.1 82 -40 -40 опасность
обморожения
1006.6 997.1
З 2 500 м переохл. туман ясно -41.1 -43.1 81 -50 -50 опасность
обморожения
1004.9 995.3
З 2 500 м переохл. туман ясно -40.7 -42.6 82 -50 -50 опасность
обморожения
1002.7 993.1 -42.1 86
З 1 500 м переохл. туман ясно -40.6 -42.6 81 -46 -46 опасность
обморожения
1000.9 991.4 -41.4
З 2 500 м переохл. туман ясно -39.6 -41.6 81 -49 -48 опасность
обморожения
999.9 990.4
З 1 500 м переохл. туман ясно -38.4 -40.7 79 -43 -43 опасность
обморожения
1000.6 991.2
штиль 0 4000 м слаб. снег {туман} 10/0 2000 м
[Ac As]
-34.9 -37.0 81 -35 -35 опасность
обморожения
1001.0 991.7 -34.6 0.2
В 4 4000 м слаб. снег 10/0 2000 м
[Ac As]
-29.6 -31.3 85 -41 -41 опасность
обморожения
1001.3 992.2
В 6
{10}
4000 м слаб. снег {метель} 10/0 2000 м
[Ac As]
-22.3 -24.1 85 -34 -34 опасность
обморожения
1001.6 992.8
В 3 4000 м слаб. снег {метель} 10/0 2000 м
[Ac As]
-21.7 -22.9 90 -30 -30 прохладно 1002.1 993.4
В 3 20 км {снег, метель} 8/0 2000 м
[Ac trans Ci fib]
-18.3 -18.9 95 -26 -26 по сезону 1001.1 992.5 -34.8 2 84
В 2 20 км 10/0 2000 м
[Ac As Ci fib]
-21.2 -21.8 95 -27 -27 прохладно 1001.0 992.3 -22.3
В 4 50 км 3/0
[Ci fib]
-20.9 -21.5 95 -30 -30 холодно 1000.4 990.7
З 2 50 км 3/0
[Ci fib]
-25.0 -26.7 86 -32 -32 опасность
обморожения
998.1 989.2
З 2 50 км 3/0
[Ci fib]
-22.9 -24.8 84 -29 -29 прохладно 996.2 987.4 -18.2
З 3 20 км 3/0
[Ci fib]
-27.4 -28.5 90 -36 -36 опасность
обморожения
995.2 986.2
З 3 10 км 3/0
[Ci fib]
-27.4 -28.5 90 -36 -36 опасность
обморожения
995.2 986.2
З 4 10 км 3/0
[Ci fib]
-30.8 -31.9 90 -42 -42 опасность
обморожения
996.0 986.9
З 2 10 км 3/0
[Ci fib]
-30.5 -31.5 91 -38 -38 опасность
обморожения
997.7 988.6 -32.1 84
штиль 0 4000 м дымка 10/0 2000 м
[Ac trans Ci fib]
-31.4 -32.4 91 -31 -31 опасность
обморожения
999.9 990.8
штиль 0 20 км 8/0 2000 м
[Ac trans Ci fib]
-31.5 -32.6 90 -32 -31 опасность
обморожения
1002.1 993.0
штиль 0 20 км 3/0
[Ci fib]
-31.8 -32.9 90 -32 -32 опасность
обморожения
1005.0 995.8
штиль 0 20 км ясно -32.6 -33.6 91 -33 -33 опасность
обморожения
1008.0 998.8 -30.3
В 1 20 км ясно -31.5 -33.2 85 -36 -36 опасность
обморожения
1010.5 1001.3
В 2 20 км ясно -30.3 -32.1 84 -38 -38 опасность
обморожения
1012.4 1003.3
СЗ 2 20 км ясно -34.5 -36.1 85 -43 -43 опасность
обморожения
1015.1 1005.7
Ю 1 20 км ясно -34.7 -36.4 84 -39 -39 опасность
обморожения
1017.5 1008.1 -35.6 84
штиль 0 4000 м дымка ясно -34.4 -36.1 84 -34 -34 опасность
обморожения
1019.0 1009.6
штиль 0 4000 м дымка ясно -34.7 -36.4 84 -35 -34 опасность
обморожения
1020.9 1011.5
штиль 0 4000 м дымка ясно -34.6 -36.1 86 -35 -35 опасность
обморожения
1022.5 1013.1
штиль 0 4000 м дымка ясно -34.1 -35.8 84 -34 -34 опасность
обморожения
1023.8 1014.5 -34.1
штиль 0 4000 м дымка ясно -35.4 -36.5 90 -35 -35 опасность
обморожения
1025.5 1016.0
штиль 0 4000 м дымка ясно -35.8 -36.8 90 -36 -36 опасность
обморожения
1026.6 1017.1
штиль 0 4000 м дымка ясно -36.9 -37.9 90 -37 -37 опасность
обморожения
1027.7 1018.1
ЮВ 1 4000 м дымка ясно -37.0 -38.5 86 -42 -42 опасность
обморожения
1028.5 1018.9 -37.4 84
В 2 4000 м снежные кристаллы 10/0
[Cs]
-35.4 -37.1 84 -44 -44 опасность
обморожения
1028.9 1019.4
штиль 0 4000 м слаб. снег 10/0
[Cs]
-35.5 -37.1 85 -36 -35 опасность
обморожения
1029.6 1020.1
ЮВ 1 10 км {снег} 3/0
[Ci fib]
-36.3 -37.8 86 -41 -41 опасность
обморожения
1030.5 1021.0
штиль 0 4000 м слаб. снег 10/0
[Cs]
-34.5 -36.1 85 -35 -35 опасность
обморожения
1031.3 1021.8 -34.5 1
В 1 4000 м слаб. снег 10/0
[Cs]
-35.4 -37.1 84 -40 -40 опасность
обморожения
1031.2 1021.7
ЮВ 1 4000 м слаб. снег 10/0
[Cs]
-33.8 -35.5 85 -38 -38 опасность
обморожения
1031.9 1022.5
В 1 4000 м слаб. снег 10/0
[Cs]
-35.5 -36.1 94 -40 -40 опасность
обморожения
1032.4 1022.9
ЮВ 2 4000 м слаб. снег 10/0
[Cs]
-34.4 -36.1 84 -43 -43 опасность
обморожения
1032.5 1023.0 -35.5 0.2 84
ЮВ 1 20 км {снег} 8/0 2000 м
[Ac trans Ci fib]
-36.1 -37.8 84 -41 -41 опасность
обморожения
1032.9 1023.4 -36.1
В 1 20 км {снег} 8/0 2000 м
[Ac trans Ci fib]
-35.7 -37.4 84 -40 -40 опасность
обморожения
1033.7 1024.2
В 2 20 км 6/0 2000 м
[Ac trans Ci fib]
-35.7 -37.4 84 -44 -44 опасность
обморожения
1034.3 1024.8
ЮВ 1 20 км 4/0
[Ci fib]
-35.1 -36.7 85 -40 -40 опасность
обморожения
1034.7 1025.1 -34.0 0.0
В 2 4000 м слаб. снег 10/0
[Cs]
-36.8 -38.5 84 -45 -45 опасность
обморожения
1034.3 1024.7
штиль 0 10 км {снег} 8/0 2000 м
[Ac trans Ci fib]
-37.7 -39.3 85 -38 -38 опасность
обморожения
1034.6 1025.0
штиль 0 4000 м слаб. снег 10/0
[Cs]
-38.2 -39.7 86 -38 -38 опасность
обморожения
1034.5 1024.9
штиль 0 4000 м слаб. снег 10/0
[Cs]
-36.7 -38.5 83 -37 -37 опасность
обморожения
1034.8 1025.2 -38.7 0.3 85
штиль 0 4000 м слаб. снег 10/0
[Cs]
-38.3 -39.7 87 -38 -38 опасность
обморожения
1035.1 1025.4 -38.6
штиль 0 4000 м слаб. снег 10/0
[Cs]
-36.3 -37.8 86 -36 -36 опасность
обморожения
1035.9 1026.3
штиль 0 4000 м слаб. снег 10/0
[Cs]
-37.7 -39.3 85 -38 -38 опасность
обморожения
1037.0 1027.3
В 1 4000 м слаб. снег 10/0
[Cs]
-38.6 -40.1 86 -44 -44 опасность
обморожения
1038.3 1028.6 -36.3 0.6
ЮВ 2 10 км {снег} 6/0
[Ci fib]
-38.4 -40.7 79 -47 -47 опасность
обморожения
1038.8 1029.1
В 1 4000 м слаб. снег 10/0
[Cs]
-39.3 -41.6 79 -44 -44 опасность
обморожения
1039.4 1029.6
В 2 4000 м дымка {снег} 8/0 2000 м
[Ac trans Ci fib]
-38.9 -41.1 80 -48 -48 опасность
обморожения
1039.8 1030.1
В 4 10 км {снег} 6/0
[Ci fib]
-37.1 -39.5 78 -50 -50 опасность
обморожения
1039.2 1029.5 -39.8 0.0 85
В 5 10 км позёмок {метель} ясно -37.1 -38.8 84 -51 -51 опасность
обморожения
1037.6 1028.0
В 5 20 км позёмок {метель} ясно -36.9 -38.5 85 -51 -51 опасность
обморожения
1036.3 1026.6
ЮВ 4 20 км {метель} ясно -38.0 -39.7 84 -51 -51 опасность
обморожения
1034.1 1024.5
В 3 4000 м дымка {метель} ясно -38.5 -39.7 88 -50 -50 опасность
обморожения
1031.9 1022.3 -35.9
В 3 20 км ясно -31.8 -33.4 86 -42 -42 опасность
обморожения
1027.9 1018.5
В 5
{10}
20 км позёмок {метель} 4/0 2000 м
[Ac trans Ci fib]
-28.7 -30.5 84 -41 -41 опасность
обморожения
1024.5 1015.3
В 7 20 км позёмок {метель} 6/0 2000 м
[Ac trans Ci fib]
-28.3 -30.0 85 -42 -42 опасность
обморожения
1020.6 1011.5
Местоположение метеостанции Норильск (Красноярский край, Россия): широта 69.33 долгота 88.30 высота над уровнем моря 65 м.
В архиве по умолчанию представлена погода в Норильске за последнюю неделю. Архивные данные за месяц целиком и за предыдущие месяцы, начиная с января 2011 года, Вы можете получить, выбрав интересующий диапазон дат из раскрывающегося списка и нажав кнопку "Найти!".
*Определитесь, кто Вы:
Внимание! Время в таблицах - всемирное. Для получения местного времени необходимо прибавить поправку, которая равна 7 ч.
Смотрите также архив погоды в соседних городах и на ближайших метеорологических станциях:
Партнеры нашего сайта:      
Пояснения к столбцам:
  • Ветер - указаны скорость ветра в м/с - средняя за 10 мин, порывы в срок и между сроками (в фигурных скобках) и направление, откуда дует ветер: С - северный,
  • СВ - северо-восточный, В - восточный, ЮВ - юго-восточный, Ю - южный, ЮЗ - юго-западный, З - западный, СЗ - северо-западный.
  • Видимость - горизонтальная дальность видимости в метрах или километрах. При видимости от 1 до 10 км при отсутствии осадков обычно наблюдается дымка, при ухудшении видимости до 1 км и менее - туман. В сухую погоду видимость может ухудшаться дымом, пылью или мглою.
  • Явления - указаны атмосферные явления, наблюдавшиеся в срок или в последний час перед сроком; фигурными скобками обозначены явления, наблюдавшиеся между сроками (за 1-3 часа до срока); квадратными скобками обозначены град или гололедные отложения с указанием их диаметра в мм.
  • Облачность - указаны через наклонную черту общая и нижняя облачность в баллах и высота нижней границы облаков в метрах; квадратными скобками обозначены формы облаков: Ci - перистые, Cs - перисто-слоистые, Cc - перисто-кучевые, Ac - высококучевые, As - высокослоистые, Sc - слоисто-кучевые, Ns - слоисто-дождевые, Cu - кучевые, Cb - кучево-дождевые. Подробнее классификацию облаков см. в Атласе облаков (PDF).
  • T - Температура воздуха - температура, измеренная на высоте 2 м над землей.
  • Td - Температура точки росы - температура, при понижении до которой содержащийся в воздухе водяной пар достигнет насыщения.
  • f - Относительная влажность воздуха - влажноcть воздуха, измеренная на высоте 2 м над землей.
  • Te - Эффективная температура - температура, которую ощущает одетый по сезону человек в тени. Характеристика душности погоды. При расчете учитывается влияние влажности воздуха и скорости ветра на теплоощущения человека.
  • Tes - Эффективная температура на солнце - температура, которую ощущает человек, с поправкой на солнечный нагрев. Характеристика знойности погоды. Зависит от высоты солнца над горизонтом, облачности и скорости ветра. Ночью, в пасмурную погоду, а также при ветре 12 м/с и более поправка равна нулю.
  • P - Атмосферное давление - приведенное к уровню моря атмосферное давление.
  • Po - Атмосферное давление - измеренное на уровне метеостанции атмосферное давление.
  • Tmin - Минимальная температура - минимум температуры воздуха на высоте 2 м над землей.
  • Tmax - Максимальная температура - максимум температуры воздуха на высоте 2 м над землей.
  • R - Количество осадков - Количество выпавших осадков за период времени, мм. При наведении курсора мыши на число - период времени, за который выпало указанное количество осадков.
  • R24 - Количество осадков - Количество выпавших осадков за 24 часа, мм.
  • S - Снежный покров - Высота снежного покрова, см. При наведении курсора мыши на число - состояние снежного покрова и степень покрытия местности в баллах.